Temperature
12 12 12 12 12 11 11 11 10 10 10 9 9 8 8 8 8 7 7 7 6 6 6 6 6 6 6 6 6 6 6 5 5 5 5 5 5 4 4 4 4 4 4
11 11 11 11 11 10 10 10 9 9 9 8 8 7 7 7 7 6 6 6 6 5 5 5 5 5 5 5 5 5 5 5 5 4 4 4 4 4 4 3 3 3 3
10 10 10 10 10 10 9 9 8 8 8 7 7 6 6 6 6 6 5 5 5 5 5 4 4 4 4 4 4 4 4 4 4 4 4 3 3 3 3 3 2 2 2
10 10 9 9 9 9 8 8 8 7 7 6 6 5 5 5 5 5 5 4 4 4 4 4 4 4 3 3 3 3 3 3 3 3 3 3 2 2 2 2 2 2 2
9 9 9 9 8 8 8 7 7 6 5 5 4 4 4 4 4 4 4 4 3 3 3 3 3 3 3 3 3 3 3 2 2 2 2 2 2 1 1 1 1 1 1
9 9 9 8 8 7 7 6 6 5 4 3 3 3 3 3 3 3 3 3 2 2 2 2 2 2 2 2 2 2 2 2 2 1 1 1 1 1 0 0 0 0 -0
9 8 8 8 7 7 6 5 4 4 3 2 2 2 2 2 2 2 2 2 2 2 2 2 2 2 2 2 2 2 2 1 1 1 1 0 0 0 -0 -0 -0 -1 -1
8 8 8 7 7 6 5 4 3 3 2 1 1 1 1 1 1 1 1 1 1 1 1 1 1 1 1 1 1 1 1 1 0 0 -0 -0 -1 -1 -1 -1 -1 -1 -1
8 8 7 7 6 5 5 4 2 2 1 1 0 0 0 0 1 1 1 1 1 1 1 1 1 1 1 1 1 1 0 0 -0 -1 -1 -1 -1 -1 -1 -1 -1 -1 -2
8 7 7 6 5 5 4 3 2 1 1 0 0 -0 -0 0 0 0 0 1 1 1 1 0 0 0 0 0 0 0 -0 -0 -1 -1 -1 -1 -1 -2 -2 -2 -2 -2 -3
7 6 6 5 5 4 3 3 2 1 0 0 -0 -0 -0 0 0 0 0 0 0 0 0 0 0 0 -0 -0 -0 -0 -1 -1 -1 -1 -1 -2 -2 -2 -2 -2 -3 -3 -3
6 5 5 4 4 3 3 2 1 1 0 0 -0 0 0 0 0 0 0 0 0 0 0 0 0 -0 -0 -0 -1 -1 -1 -1 -1 -2 -2 -2 -2 -2 -3 -3 -3 -3 -3
5 5 4 4 3 3 3 2 1 1 1 0 0 0 0 0 0 0 0 0 0 0 0 -0 -0 -0 -1 -1 -1 -1 -1 -1 -2 -2 -2 -2 -3 -3 -3 -3 -4 -4 -4
4 4 4 3 3 3 2 2 1 1 1 1 1 0 0 0 0 0 -0 -0 -0 -0 -0 -0 -1 -1 -1 -1 -1 -1 -1 -2 -2 -2 -2 -3 -3 -3 -4 -4 -4 -4 -4
4 3 3 3 2 2 2 2 2 1 1 1 1 0 0 0 0 0 -0 -0 -0 -1 -1 -1 -1 -1 -1 -1 -1 -1 -2 -2 -2 -2 -3 -3 -3 -4 -4 -4 -4 -4 -4
3 3 3 2 2 2 2 1 1 1 1 1 0 0 0 0 0 -0 -0 -0 -1 -1 -1 -0 -0 -1 -1 -1 -1 -1 -2 -2 -2 -3 -3 -3 -4 -4 -4 -5 -5 -5 -5
3 2 2 2 2 1 1 1 1 1 1 1 1 1 0 0 0 -0 -1 -1 -1 -1 -1 -0 -0 -1 -1 -1 -2 -2 -2 -3 -3 -3 -3 -4 -4 -4 -5 -5 -5 -5 -5
2 2 2 1 1 1 1 1 1 1 1 1 1 0 0 0 -0 -0 -1 -1 -1 -1 -1 -0 -1 -1 -1 -2 -2 -2 -3 -3 -3 -3 -4 -4 -4 -5 -5 -5 -5 -6 -6
2 1 1 1 1 1 1 1 0 0 0 0 0 0 0 -0 -0 -1 -1 -1 -1 -1 -1 -1 -1 -2 -2 -2 -3 -3 -3 -3 -3 -4 -4 -4 -5 -5 -5 -5 -6 -6 -7
1 1 1 0 0 0 0 -0 -0 -0 -0 0 0 0 0 -0 -0 -0 -0 -1 -1 -1 -1 -1 -2 -2 -2 -3 -3 -3 -3 -4 -4 -4 -4 -5 -5 -5 -6 -6 -6 -7 -7
0 0 0 0 0 -0 -0 -0 -0 -0 -0 -0 0 0 -0 -0 -0 -0 -1 -1 -1 -1 -1 -2 -2 -2 -3 -3 -4 -4 -4 -4 -4 -5 -5 -5 -5 -6 -6 -6 -7 -7 -7
-0 -0 -0 -0 -1 -1 -1 -1 -1 -1 -1 -1 -0 -0 -1 -1 -1 -1 -1 -1 -1 -1 -2 -2 -2 -3 -3 -4 -4 -4 -5 -5 -5 -5 -5 -5 -6 -6 -6 -7 -7 -7 -8
-1 -1 -1 -1 -1 -1 -1 -1 -1 -1 -1 -1 -1 -1 -1 -1 -1 -1 -1 -1 -2 -2 -2 -3 -3 -3 -4 -4 -4 -5 -5 -5 -5 -6 -6 -6 -6 -6 -7 -7 -7 -8 -8
-2 -2 -2 -2 -2 -2 -2 -2 -2 -2 -2 -2 -2 -2 -2 -2 -2 -2 -2 -2 -3 -3 -3 -3 -4 -4 -4 -5 -5 -5 -5 -5 -6 -6 -6 -6 -6 -7 -7 -7 -8 -8 -8
-2 -3 -3 -3 -3 -3 -3 -3 -2 -2 -2 -2 -2 -2 -2 -3 -3 -3 -3 -3 -3 -4 -4 -4 -4 -4 -4 -5 -5 -5 -5 -6 -6 -6 -6 -7 -7 -7 -7 -8 -8 -8 -8
-3 -3 -3 -3 -3 -3 -3 -3 -3 -3 -3 -3 -3 -3 -3 -4 -4 -4 -4 -4 -4 -4 -5 -5 -5 -5 -5 -5 -5 -6 -6 -6 -6 -7 -7 -7 -7 -7 -8 -8 -8 -9 -9
Wind_Speed
8 7 7 7 6 5 5 5 4 4 3 2 2 2 2 2 3 2 1 2 1 2 2 3 3 4 3 3 3 2 2 2 1 2 2 3 3 4 5 7 8 8 9
7 7 7 7 6 5 5 5 4 3 3 2 2 2 2 3 3 3 2 3 3 3 3 4 4 3 4 4 3 3 3 2 1 2 2 2 3 3 3 3 4 6 7
7 8 7 7 6 5 5 5 4 3 2 2 2 3 3 3 3 4 3 4 4 5 5 5 4 5 4 4 4 3 2 2 2 3 2 2 2 1 2 2 3 3 4
8 8 7 7 6 6 6 5 3 3 2 2 3 3 3 3 3 3 3 4 5 6 6 6 6 5 4 4 4 4 3 3 3 3 3 2 1 1 2 2 2 3 2
8 8 7 7 7 6 5 4 3 3 2 2 2 2 2 2 2 3 3 4 5 5 5 6 6 7 8 6 5 4 4 3 3 3 2 2 1 2 2 2 2 2 2
8 8 7 7 7 6 5 5 4 3 2 2 2 2 2 2 4 3 3 3 4 5 5 4 5 5 7 8 9 9 7 4 3 2 1 2 1 2 2 2 2 2 2
8 8 8 8 7 6 6 5 5 4 3 3 2 3 4 4 4 4 4 4 4 4 4 3 3 4 5 3 5 7 8 8 6 3 3 2 2 2 2 2 2 1 2
8 8 8 8 7 7 6 6 5 4 4 3 3 3 4 4 5 5 5 5 4 3 3 3 3 3 3 3 4 4 3 4 5 5 4 4 4 3 2 1 0 2 3
9 9 9 9 8 8 7 6 5 4 4 3 3 3 4 4 5 5 5 3 3 3 2 2 2 3 3 3 2 1 1 1 3 4 4 3 2 3 3 2 2 3 2
9 8 8 8 8 8 7 6 5 4 4 4 4 3 4 4 7 6 4 2 3 3 3 2 2 2 3 1 1 1 1 1 1 1 0 1 1 1 1 2 2 2 0
7 8 8 8 8 7 7 6 6 5 5 5 5 4 4 6 7 8 7 3 2 3 3 2 3 4 3 2 1 1 1 1 0 1 1 2 2 2 2 2 3 3 2
7 7 7 7 7 7 7 7 6 6 6 6 5 5 5 5 7 8 10 8 5 3 3 3 4 6 4 4 3 3 2 1 0 1 2 2 2 2 2 2 1 1 3
7 7 7 7 7 7 8 8 7 6 6 6 5 5 5 5 7 12 11 11 10 5 4 5 5 6 5 4 5 6 3 2 2 2 3 3 2 3 2 1 2 4 6
7 7 7 7 7 7 7 7 7 7 7 6 6 6 5 5 5 5 6 6 9 7 5 6 7 7 6 6 5 4 3 4 3 3 3 2 2 2 2 3 2 2 3
6 6 7 7 7 7 7 7 8 7 8 8 7 6 6 6 8 12 8 6 6 6 5 4 3 3 4 4 4 5 5 4 4 3 3 3 3 3 3 3 3 2 3
6 6 6 6 6 6 6 6 10 10 13 14 11 9 7 9 9 12 14 13 13 12 7 4 5 6 6 6 6 5 5 5 5 5 4 4 4 4 3 3 3 4 5
6 6 5 6 6 6 6 7 6 8 14 15 15 16 14 12 12 11 12 13 13 13 8 6 6 6 6 6 6 6 5 6 5 5 5 5 5 4 4 4 4 5 5
5 6 6 6 6 7 7 7 6 6 6 7 12 18 19 18 16 15 14 11 8 9 7 7 8 7 7 7 6 6 6 5 5 5 6 5 5 5 5 5 5 6 6
4 4 5 5 6 6 6 6 7 7 7 6 5 8 15 17 17 17 15 9 9 9 9 9 8 8 7 7 7 7 7 6 6 6 6 6 6 6 6 6 6 10 8
4 6 6 5 5 6 6 7 7 7 7 7 7 7 5 7 8 9 10 9 9 10 9 9 8 8 7 7 7 7 7 7 7 7 7 6 6 6 7 8 7 7 7
3 4 6 5 5 6 6 7 7 7 7 8 8 8 10 8 9 9 9 10 10 10 9 9 8 8 8 7 7 8 8 8 7 7 7 7 7 7 7 7 8 8 7
3 4 4 4 5 5 6 6 6 7 7 8 6 7 12 9 8 8 9 9 9 8 8 7 7 7 8 8 8 8 8 8 8 8 7 7 7 7 7 7 8 7 8
4 4 4 4 4 6 6 5 6 6 6 6 6 6 6 7 8 8 8 8 7 7 6 7 8 7 7 9 10 9 9 9 8 8 8 7 7 7 7 8 9 9 9
4 4 4 4 4 4 4 5 5 5 6 6 6 6 6 6 7 7 7 6 6 6 6 6 7 9 10 9 11 13 13 13 13 11 10 9 8 8 8 8 9 10 10
4 4 4 4 4 4 4 4 4 5 5 5 5 5 5 6 6 6 5 5 6 7 7 7 7 8 10 12 12 13 15 17 15 13 11 8 9 9 9 9 9 9 10
4 4 4 4 4 4 4 4 4 4 5 5 5 5 5 5 6 6 5 5 6 6 6 6 8 10 11 12 14 16 16 17 17 17 13 8 9 9 9 9 11 11 11
Wind_Direction
130 124 120 113 110 111 106 97 89 81 71 52 33 17 13 2 347 352 24 39 63 71 57 66 58 40 41 25 22 28 33 37 164 112 92 65 55 47 42 41 43 45 43
136 132 124 119 120 117 109 100 91 86 76 62 41 28 28 19 10 23 52 48 64 76 66 71 65 58 50 33 37 43 41 33 84 131 98 73 61 47 43 38 38 47 45
136 133 129 133 135 126 116 106 96 90 83 73 63 50 43 36 31 35 56 65 65 64 61 64 61 68 59 46 47 47 42 43 56 100 101 87 67 33 42 40 38 41 38
143 143 145 145 137 125 116 112 106 97 92 82 80 73 65 53 48 48 63 82 80 71 63 59 56 61 59 54 52 36 41 58 70 90 101 96 83 6 50 38 21 11 12
151 151 149 137 128 124 126 126 121 115 112 106 110 115 103 86 71 69 74 97 102 96 82 74 70 70 66 63 63 43 42 57 70 84 94 84 71 49 41 20 11 342 7
158 156 146 139 139 142 146 144 144 146 144 139 131 124 113 102 105 102 105 100 105 108 104 95 89 70 73 70 69 62 59 67 71 71 92 106 90 68 51 31 26 25 342
161 156 152 151 154 157 158 158 165 167 158 150 138 126 116 118 129 122 112 103 102 104 107 100 99 91 75 63 70 70 62 59 59 77 85 88 88 63 73 40 32 22 274
162 160 158 159 161 159 162 168 167 156 155 152 146 134 127 135 138 132 122 107 108 107 105 107 113 112 91 74 73 71 71 61 56 61 76 70 76 66 68 80 278 334 301
169 167 164 164 163 164 169 168 161 156 158 160 154 150 146 151 158 152 141 136 141 147 139 116 103 125 121 98 87 81 90 121 101 88 83 77 60 44 37 50 40 38 348
175 167 162 162 165 170 171 165 159 162 170 167 168 173 174 180 180 176 173 166 165 169 175 177 169 151 153 130 94 114 113 136 114 115 299 246 218 194 68 98 124 120 54
158 154 157 161 164 166 165 163 163 167 171 177 182 194 201 205 197 195 197 190 186 181 186 194 195 186 192 216 226 179 186 148 121 242 252 244 217 185 147 116 116 145 174
146 152 157 161 166 167 164 167 171 175 181 190 197 207 214 210 208 211 214 216 208 189 201 201 193 192 206 231 239 234 234 217 265 268 259 250 215 182 158 137 147 202 219
154 163 166 168 170 169 170 175 181 188 195 199 202 210 213 206 213 220 221 222 222 211 206 204 198 207 223 239 245 243 236 213 230 243 249 243 208 181 162 184 259 258 259
171 175 174 174 177 179 184 186 192 198 203 205 206 212 211 206 206 208 211 224 226 226 221 220 224 231 229 234 246 247 219 212 215 224 240 233 191 179 202 213 229 247 275
181 182 182 185 186 191 197 203 204 208 206 206 209 206 205 216 217 209 200 204 201 207 192 187 194 207 218 223 225 224 217 219 230 221 229 232 227 220 226 217 213 217 240
191 193 193 194 194 197 202 215 220 219 224 225 221 215 217 221 222 218 218 218 217 215 207 200 210 215 219 221 221 219 214 213 213 213 218 222 227 231 237 231 220 224 246
207 204 200 201 200 202 203 211 224 228 232 235 234 234 233 232 230 226 224 225 224 221 219 213 219 221 221 218 215 214 217 215 208 208 213 217 220 226 232 237 238 241 249
220 217 213 211 209 209 211 214 217 220 225 234 234 236 237 236 233 231 228 223 225 223 218 220 223 222 220 217 215 216 218 215 209 211 213 216 216 222 232 238 237 239 248
234 225 219 217 214 214 215 216 220 224 230 232 224 231 234 235 235 233 227 221 219 221 221 223 223 220 218 215 214 213 212 214 213 211 215 217 218 221 233 238 240 250 252
251 242 230 223 221 220 219 221 224 227 230 232 234 231 211 211 221 224 221 219 223 226 223 223 221 218 216 214 212 211 213 216 217 218 219 219 219 222 233 237 240 244 248
268 261 247 238 230 226 224 226 227 228 231 235 237 231 217 214 223 224 222 222 225 227 225 222 220 217 215 214 212 212 214 219 219 220 220 220 219 225 231 236 240 243 248
273 266 259 253 244 236 235 229 229 231 234 238 241 238 236 227 226 229 229 229 228 227 221 217 220 219 215 212 211 213 218 222 221 218 219 220 221 227 231 235 240 243 247
276 271 267 260 253 253 250 237 232 234 238 239 239 234 232 232 233 233 233 232 228 226 220 216 222 222 216 213 211 211 217 222 218 212 215 220 223 226 229 234 237 242 246
284 279 276 272 262 254 252 248 241 239 242 244 242 240 238 238 241 241 237 232 228 228 222 220 224 225 219 216 217 218 222 225 221 217 212 219 223 227 229 234 238 242 247
284 280 279 279 275 268 263 258 251 246 246 248 247 246 245 243 244 245 240 234 230 229 225 221 223 225 226 223 222 223 228 233 230 223 216 218 225 226 230 235 240 245 247
283 281 280 279 277 275 271 268 263 258 254 253 251 251 250 248 247 245 243 238 235 232 229 224 224 226 228 229 230 232 236 239 238 234 224 221 224 229 230 237 240 244 249
Height
1496 1499 1501 1503 1505 1506 1507 1507 1508 1508 1508 1507 1507 1507 1506 1505 1505 1504 1504 1504 1503 1503 1503 1503 1503 1503 1503 1503 1504 1504 1504 1505 1505 1506 1506 1505 1505 1505 1504 1504 1503 1502 1501
1493 1496 1497 1499 1501 1502 1502 1503 1503 1503 1503 1502 1502 1502 1501 1501 1500 1500 1499 1499 1499 1499 1499 1499 1499 1499 1499 1499 1499 1500 1500 1500 1501 1501 1501 1502 1501 1501 1501 1500 1500 1499 1499
1490 1492 1494 1496 1497 1498 1498 1499 1499 1499 1498 1498 1497 1497 1496 1496 1496 1495 1495 1495 1495 1495 1495 1495 1495 1495 1495 1495 1496 1496 1496 1496 1497 1497 1497 1498 1498 1498 1497 1497 1497 1496 1496
1488 1489 1491 1492 1493 1494 1494 1495 1494 1494 1494 1493 1492 1492 1492 1492 1492 1491 1491 1491 1491 1491 1492 1492 1492 1492 1492 1492 1493 1493 1493 1493 1493 1494 1494 1494 1494 1494 1494 1494 1494 1494 1493
1485 1486 1488 1489 1490 1490 1490 1490 1490 1490 1489 1488 1488 1488 1487 1487 1488 1488 1488 1488 1488 1488 1488 1489 1489 1489 1489 1490 1490 1490 1490 1491 1491 1491 1491 1491 1491 1491 1491 1490 1490 1490 1490
1481 1483 1484 1485 1486 1486 1486 1486 1485 1485 1485 1484 1484 1484 1484 1484 1484 1484 1485 1485 1485 1486 1486 1486 1487 1487 1487 1487 1487 1487 1488 1488 1488 1488 1488 1488 1488 1488 1488 1488 1487 1487 1487
1478 1479 1480 1481 1482 1482 1482 1481 1481 1481 1481 1481 1481 1481 1481 1481 1481 1482 1482 1483 1483 1484 1484 1484 1485 1485 1485 1485 1485 1485 1486 1485 1485 1486 1485 1485 1486 1485 1485 1485 1485 1485 1485
1474 1475 1476 1477 1477 1477 1477 1477 1477 1477 1477 1478 1478 1478 1478 1479 1479 1479 1480 1480 1481 1482 1482 1483 1483 1483 1483 1483 1483 1483 1483 1483 1483 1483 1483 1483 1483 1483 1483 1483 1483 1482 1482
1469 1471 1472 1473 1473 1473 1473 1473 1473 1474 1474 1475 1476 1476 1476 1477 1477 1478 1478 1479 1479 1480 1480 1480 1481 1481 1481 1481 1481 1481 1481 1481 1481 1481 1481 1481 1481 1481 1481 1481 1480 1480 1480
1465 1467 1468 1469 1469 1469 1469 1469 1470 1471 1471 1472 1473 1474 1474 1475 1475 1476 1476 1477 1477 1478 1478 1478 1479 1479 1479 1479 1479 1478 1478 1479 1479 1479 1479 1479 1479 1479 1479 1479 1478 1478 1478
1461 1463 1464 1465 1465 1466 1466 1466 1467 1467 1468 1469 1470 1471 1472 1473 1473 1474 1474 1475 1475 1476 1476 1476 1476 1477 1477 1477 1477 1476 1476 1477 1477 1477 1477 1477 1477 1476 1476 1476 1476 1476 1476
1458 1459 1460 1461 1461 1462 1462 1463 1463 1464 1465 1466 1467 1468 1469 1470 1471 1471 1472 1473 1473 1473 1474 1474 1474 1474 1474 1474 1474 1474 1474 1474 1474 1474 1474 1474 1474 1474 1474 1474 1473 1473 1473
1454 1455 1456 1457 1457 1458 1459 1459 1460 1461 1462 1463 1464 1465 1466 1467 1468 1469 1469 1470 1470 1471 1471 1471 1471 1472 1472 1472 1472 1472 1472 1472 1471 1471 1471 1471 1471 1471 1471 1471 1470 1470 1469
1451 1452 1452 1453 1453 1454 1455 1456 1456 1457 1458 1459 1460 1461 1462 1463 1464 1465 1466 1467 1467 1467 1468 1468 1468 1468 1468 1468 1469 1469 1469 1469 1468 1468 1468 1468 1468 1468 1467 1467 1467 1466 1466
1447 1448 1448 1449 1449 1450 1451 1452 1452 1454 1455 1456 1457 1458 1459 1459 1461 1462 1462 1463 1463 1464 1464 1464 1464 1465 1465 1465 1465 1465 1465 1465 1465 1465 1465 1464 1464 1464 1463 1463 1462 1461 1461
1443 1444 1444 1445 1445 1446 1447 1448 1448 1450 1450 1451 1452 1453 1454 1455 1456 1457 1458 1458 1459 1459 1459 1459 1460 1460 1460 1461 1461 1461 1461 1461 1461 1461 1460 1460 1460 1459 1459 1458 1458 1457 1456
1439 1439 1440 1440 1441 1441 1442 1443 1444 1445 1446 1446 1447 1448 1449 1450 1451 1452 1453 1454 1454 1454 1454 1454 1455 1455 1455 1456 1456 1456 1456 1456 1456 1456 1456 1455 1455 1454 1454 1453 1452 1451 1450
1435 1435 1435 1436 1436 1437 1437 1438 1439 1439 1440 1441 1442 1443 1444 1445 1446 1447 1448 1448 1448 1448 1448 1449 1449 1450 1450 1450 1451 1451 1451 1451 1451 1450 1450 1450 1450 1449 1448 1447 1447 1446 1445
1430 1430 1430 1431 1431 1432 1432 1433 1433 1434 1434 1435 1436 1437 1438 1439 1439 1440 1441 1441 1441 1442 1442 1443 1443 1444 1444 1444 1445 1445 1445 1445 1445 1445 1444 1444 1444 1443 1442 1442 1441 1440 1439
1425 1425 1426 1426 1426 1426 1427 1427 1427 1428 1428 1429 1430 1431 1432 1432 1432 1433 1433 1434 1434 1435 1435 1436 1436 1437 1437 1438 1438 1438 1438 1438 1438 1438 1438 1438 1437 1437 1436 1435 1434 1434 1432
1420 1420 1420 1420 1420 1421 1421 1421 1422 1422 1422 1423 1423 1424 1425 1425 1425 1425 1426 1426 1427 1427 1428 1429 1429 1429 1430 1430 1431 1431 1431 1431 1431 1431 1431 1431 1430 1430 1429 1429 1428 1427 1426
1416 1415 1415 1415 1415 1415 1415 1416 1416 1416 1416 1416 1417 1417 1417 1417 1417 1418 1418 1418 1419 1420 1420 1421 1421 1421 1422 1422 1423 1423 1423 1423 1424 1424 1424 1423 1423 1423 1422 1422 1421 1420 1419
1411 1411 1410 1410 1410 1410 1410 1410 1410 1410 1410 1410 1410 1410 1410 1410 1410 1410 1410 1411 1411 1411 1412 1412 1412 1413 1414 1414 1415 1415 1415 1416 1416 1416 1416 1416 1416 1415 1415 1414 1414 1413 1412
1407 1406 1406 1405 1405 1405 1404 1404 1404 1404 1404 1404 1403 1403 1403 1403 1403 1403 1403 1403 1403 1403 1404 1404 1404 1405 1406 1407 1407 1408 1408 1409 1409 1409 1409 1409 1408 1408 1408 1407 1406 1406 1405
1403 1402 1401 1400 1400 1399 1399 1399 1398 1398 1398 1397 1397 1397 1396 1396 1395 1395 1395 1395 1395 1395 1396 1396 1397 1397 1398 1399 1400 1400 1401 1401 1401 1401 1401 1401 1401 1400 1400 1399 1399 1398 1397
1399 1398 1397 1396 1395 1395 1394 1393 1393 1392 1392 1391 1391 1390 1390 1389 1389 1389 1388 1388 1388 1388 1389 1389 1390 1390 1391 1392 1392 1393 1394 1394 1394 1394 1394 1393 1393 1392 1392 1392 1391 1390 1389